Location: Ottawa
(45.4170°N, 75.7000°W)
Time: 05:13:23
(UTC-04:00)

ISS - Pass Details

Date: 21 May 2021
Orbit: 417 x 422 km, 51.6° (Epoch: 13 June)

Event Time Altitude Azimuth Distance (km) Brightness Sun altitude
Rises 22:20:25 0° 286° (WNW) 2,364 1.0 -14.9°
Reaches altitude 10° 22:22:43 10° 299° (WNW) 1,502 0.1 -15.2°
Maximum altitude 22:25:39 27° 359° (N) 847 -1.6 -15.5°
Drops below altitude 10° 22:28:35 10° 60° (ENE) 1,504 -1.0 -15.8°
Enters shadow 22:30:08 - 69° (ENE) 2,072 -0.4 -15.9°
